This is the latest recevied weather packets stored in our database for station/object WB4YDL. If no packets are shown the sender has not sent any weather packets the latest 10 day(s).
| Time | Temp. | Humidity | Pressure | Rain* | Wind** | Luminosity | Snow |
|---|---|---|---|---|---|---|---|
| 1778033485 | 17.78° C | 99% | 1000.7 hPa | 0 mm | - | 0 W/m² | - |
| 1778033183 | 17.78° C | 99% | 1000.9 hPa | 0 mm | - | 0 W/m² | - |
| 1778032880 | 17.78° C | 99% | 1001 hPa | 0 mm | - | 0 W/m² | - |
| 1778032578 | 17.78° C | 99% | 1001 hPa | 0 mm | - | 0 W/m² | - |
| 1778032274 | 17.78° C | 99% | 1000.8 hPa | 0 mm | - | 0 W/m² | - |
| 1778031972 | 17.78° C | 99% | 1000.7 hPa | 0 mm | - | 0 W/m² | - |
| 1778031667 | 17.78° C | 99% | 1000.9 hPa | 1.78 mm | - | 0 W/m² | - |
| 1778031366 | 17.78° C | 99% | 1000.9 hPa | 1.78 mm | - | 0 W/m² | - |
| 1778031062 | 17.78° C | 99% | 1000.7 hPa | 0 mm | - | 0 W/m² | - |
| 1778030758 | 17.78° C | 99% | 1000.8 hPa | 0 mm | - | 0 W/m² | - |
| 1778030455 | 17.78° C | 99% | 1000.7 hPa | 0 mm | - | 0 W/m² | - |
| 1778030153 | 17.78° C | 99% | 1000.5 hPa | 0 mm | - | 0 W/m² | - |
| 1778029849 | 17.78° C | 99% | 1000.9 hPa | 0 mm | - | 0 W/m² | - |
| 1778029548 | 17.78° C | 99% | 1000.9 hPa | 1.27 mm | - | 0 W/m² | - |
| 1778029244 | 17.78° C | 99% | 1000.7 hPa | 1.27 mm | - | 0 W/m² | - |
| 1778028942 | 17.78° C | 99% | 1000.7 hPa | 0 mm | - | 0 W/m² | - |
| 1778028638 | 17.78° C | 99% | 1000.6 hPa | 0 mm | - | 1 W/m² | - |
| 1778028335 | 17.78° C | 99% | 1000.3 hPa | 0 mm | - | 3 W/m² | - |
| 1778028032 | 17.78° C | 99% | 1000.6 hPa | 0 mm | - | 4 W/m² | - |
| 1778027728 | 17.78° C | 99% | 1000.5 hPa | 0 mm | - | 8 W/m² | - |
| 1778027424 | 17.78° C | 99% | 1000.5 hPa | 0 mm | - | 6 W/m² | - |
| 1778027121 | 17.78° C | 99% | 1000.8 hPa | 0 mm | - | 9 W/m² | - |
| 1778026816 | 17.78° C | 99% | 1001.3 hPa | 0 mm | - | 6 W/m² | - |
| 1778026513 | 17.78° C | 99% | 1001.3 hPa | 0 mm | - | 6 W/m² | - |
| 1778026210 | 17.78° C | 99% | 1001.4 hPa | 0 mm | - | 6 W/m² | - |
* Rain latest hour (hover to see other rain measurements)
** Current wind speed in m/s (hover to see current wind gust speed)